{"data":{"norad_id":69130,"intl_designator":"2026-110G","name":"STARLINK-37533","alt_names":[],"object_type":"PAYLOAD","status":"ACTIVE","operator":null,"country":"US","launch_date":"2026-05-20","launch_site_code":"AFWTR","launch_vehicle":null,"mission":null,"orbit_class":"UNKNOWN","rcs_meters":null,"size_class":null,"mass_kg":null,"dimensions":null,"purposes":["comms"],"wikipedia_slug":null,"has_3d_model":false,"image_url":null,"decayed_at":null,"tle_current":{"epoch":"2026-09-17T22:52:23.657376Z","epoch_age_seconds":243223,"freshness":"STALE","line1":"1 69130U 26110G   26260.95305159  .00016365  00000+0  50807-3 0  9995","line2":"2 69130  97.2872  96.0157 0001015  92.7674 267.3685 15.33448902 19822","mean_motion":15.33448902,"eccentricity":0.0001015,"inclination_deg":97.2872,"raan_deg":96.0157,"arg_perigee_deg":92.7674,"mean_anomaly_deg":267.3685,"bstar":0.00050807,"rev_number":1982,"period_min":93.905965703968,"perigee_km":464.8369325367,"apogee_km":466.22619725538,"semimajor_km":6843.668564896,"source":"CELESTRAK","updated_at":"2026-09-20T09:00:44.085379Z"}}}